Theta_e
334 344 349 348 345 343 343 344 345 344 346 346 344 341 339 338 338 343 344 344 344 343 341 341 343 345 345 345 344 344 343 343 343 344 345 345 345 345 344 344 343 341 343
338 346 347 347 345 343 343 342 345 346 346 344 342 340 338 337 337 340 341 343 344 341 339 339 339 342 342 341 340 340 341 340 341 341 340 341 342 343 342 343 342 340 341
341 346 346 346 346 345 343 343 345 344 345 345 343 340 337 338 338 340 340 341 341 341 338 337 337 337 338 338 338 339 338 338 338 338 339 339 340 342 341 343 342 341 340
343 345 345 343 345 344 343 344 344 344 343 345 342 338 338 338 337 339 338 338 340 339 339 338 336 335 336 337 337 338 337 336 335 335 334 336 336 341 341 340 340 340 339
343 345 343 343 345 344 344 344 343 343 345 345 341 338 337 337 337 337 337 339 340 338 339 338 338 337 337 337 337 337 335 334 333 332 333 334 335 337 339 337 335 335 336
343 343 342 344 345 345 344 343 343 344 345 345 341 337 337 336 336 337 337 339 340 339 338 339 338 337 338 337 337 336 334 332 331 330 331 333 333 336 337 335 334 333 334
341 342 342 342 344 344 344 343 343 343 344 343 340 337 336 335 335 337 334 334 338 338 337 337 336 336 336 335 335 334 332 331 329 330 331 332 333 334 334 333 332 331 330
339 341 342 337 339 341 342 342 342 342 343 342 340 336 335 334 334 335 333 333 337 336 335 334 334 335 334 333 332 330 328 327 327 328 329 330 332 332 332 331 330 329 329
339 340 342 341 338 335 337 338 339 340 340 340 338 337 335 334 335 335 331 332 335 332 334 335 334 332 332 331 330 328 326 325 326 327 326 328 330 331 330 328 327 327 327
337 339 340 340 340 340 340 332 334 336 336 336 335 331 329 330 330 331 329 331 332 332 333 332 331 331 330 328 326 324 323 324 325 325 325 326 328 329 328 327 326 326 325
334 338 339 338 338 337 337 332 330 330 331 330 328 325 323 327 327 328 327 329 331 330 330 329 328 327 325 324 323 321 322 323 323 324 324 327 327 327 326 325 325 324 324
330 333 337 338 336 335 333 333 333 332 332 330 327 325 324 324 326 327 324 325 326 327 327 324 321 318 316 318 318 318 320 321 322 323 323 326 325 325 325 324 323 322 322
330 332 334 336 336 334 333 331 330 330 328 327 325 323 322 322 325 326 325 324 323 317 318 315 313 313 314 315 315 316 317 319 320 321 322 325 324 324 323 322 322 321 321
330 332 333 334 336 334 332 330 329 327 326 324 323 322 321 321 322 322 322 320 319 316 312 311 310 310 310 309 311 312 314 316 317 317 319 321 322 322 322 322 321 320 320
329 332 332 333 335 335 331 330 328 327 325 324 322 321 320 320 320 320 318 317 314 312 310 309 309 308 307 307 306 308 309 311 315 314 316 316 322 321 321 321 320 320 319
329 331 332 332 333 334 332 331 327 326 325 324 322 321 320 320 319 318 315 313 310 310 309 308 308 306 304 305 303 302 303 306 308 311 309 312 317 321 320 319 319 319 319
328 330 332 332 333 332 332 331 330 328 325 323 323 321 320 320 319 316 314 311 309 307 305 304 302 301 301 299 300 299 299 298 303 304 305 304 308 312 319 319 318 318 318
328 328 331 332 331 331 332 332 330 328 327 325 322 322 320 320 319 315 312 310 306 305 303 302 301 299 298 299 295 295 297 297 299 298 300 300 301 304 310 314 316 316 316
325 328 329 332 331 331 331 331 330 328 327 326 324 323 321 319 317 315 313 309 305 303 301 300 299 299 298 297 294 292 293 295 292 297 297 296 296 299 301 302 305 310 315
320 325 329 330 332 331 331 330 330 328 327 325 324 324 322 320 317 315 313 308 304 301 299 298 296 296 297 294 293 289 293 292 290 291 295 294 293 295 296 300 303 306 309
315 319 325 328 330 331 329 327 327 326 326 325 324 324 322 321 318 315 313 308 304 301 300 297 295 294 291 292 292 292 290 292 291 289 291 293 291 291 293 294 298 301 304
306 315 319 325 329 329 330 330 330 328 328 327 325 324 323 321 319 319 314 310 306 305 300 298 294 293 292 294 296 293 291 293 290 290 290 289 289 289 290 291 294 293 297
296 306 315 320 326 329 331 330 320 320 317 320 323 323 323 322 320 318 317 314 309 305 299 298 297 296 290 291 292 296 286 294 287 288 288 289 286 288 289 289 289 290 291
295 296 307 316 322 327 329 329 325 324 321 324 324 325 323 322 321 319 318 314 308 308 305 301 298 299 296 291 291 290 291 291 291 289 286 287 287 286 288 288 287 288 288
298 295 297 308 316 323 326 329 326 325 326 324 323 322 322 321 322 320 318 315 311 308 306 303 299 298 297 298 294 289 289 287 287 290 293 284 284 285 285 288 287 287 287
303 303 300 303 311 318 324 327 326 324 324 316 315 319 317 312 312 315 317 315 313 310 307 303 301 298 298 299 296 291 290 288 286 285 287 285 284 284 284 284 285 286 287
Wind_Speed
6 9 11 13 11 11 11 11 12 11 13 17 17 16 16 16 16 15 16 15 15 18 19 19 18 20 20 21 22 23 23 23 23 23 22 22 23 24 22 20 21 20 23
12 10 11 13 12 12 11 11 11 11 13 16 16 16 16 16 16 15 16 14 16 19 19 20 19 20 19 20 20 19 20 20 19 18 16 16 19 21 21 19 19 19 21
14 11 13 12 12 11 11 10 9 12 12 17 17 15 15 16 15 14 16 13 17 19 18 19 19 19 19 18 20 21 21 19 19 18 15 14 17 21 22 20 18 19 20
13 11 12 12 12 12 11 10 9 11 11 16 16 16 15 15 15 14 15 14 17 17 18 18 18 19 19 19 20 21 21 21 20 15 12 12 15 24 24 25 24 22 23
13 11 11 12 12 11 11 10 9 10 9 15 15 15 15 15 14 14 13 13 14 17 17 18 19 19 20 20 22 22 22 22 19 16 15 14 12 18 22 22 22 23 21
11 12 12 12 13 11 10 10 8 10 11 14 14 15 14 14 14 14 13 13 14 19 18 18 19 19 20 20 20 21 20 19 16 14 12 13 11 18 21 21 22 21 20
12 11 11 12 12 11 11 10 8 10 11 14 15 14 13 13 13 14 14 13 14 18 17 18 18 18 18 18 19 18 18 15 13 12 13 14 13 20 21 21 20 20 20
13 10 10 10 10 11 10 9 8 10 11 13 13 13 13 13 13 13 13 12 13 18 17 15 17 17 17 18 17 16 16 13 12 13 12 12 16 20 21 19 20 19 19
11 10 9 9 10 9 9 9 9 10 11 10 12 12 10 11 11 10 13 12 13 15 15 16 16 15 15 16 16 16 16 13 11 9 11 8 16 18 19 18 17 17 18
10 10 10 9 9 9 8 8 8 9 10 10 12 11 9 10 9 9 10 11 13 14 14 15 14 15 16 16 16 15 14 13 11 11 9 9 17 18 17 17 16 17 17
8 10 10 9 9 9 8 7 8 9 10 11 10 10 9 6 7 9 9 12 13 13 13 14 14 14 16 15 14 13 11 7 9 8 7 13 15 17 16 16 15 16 16
10 10 9 10 10 9 7 8 7 7 6 7 7 8 6 7 6 7 8 9 12 11 13 12 12 12 10 6 6 9 6 8 7 8 7 12 14 15 15 15 14 15 16
14 12 10 9 10 10 8 6 4 4 5 5 8 7 7 6 6 5 5 5 5 8 5 6 6 6 8 6 6 6 7 7 5 5 7 9 13 14 14 13 13 13 14
12 14 13 12 10 10 6 7 7 6 5 5 6 8 6 5 6 6 5 6 6 4 6 5 5 7 8 8 7 7 7 6 5 4 6 8 10 12 13 12 12 12 13
12 13 15 12 11 10 10 8 7 7 6 7 7 7 7 7 6 5 5 5 5 5 6 6 6 6 7 7 6 6 6 6 7 5 4 11 8 11 11 12 11 11 12
12 14 14 14 13 11 10 11 8 8 8 8 7 8 8 7 7 6 6 5 5 5 5 6 6 7 6 6 7 6 6 6 6 6 4 6 13 8 10 10 11 10 11
10 12 16 16 13 12 12 10 8 8 8 8 8 10 10 9 9 8 6 5 5 5 7 7 6 6 6 5 7 6 5 5 5 6 4 4 5 13 5 9 10 10 10
10 13 13 13 14 13 12 10 8 8 8 8 8 8 11 10 11 8 6 6 6 6 6 6 6 5 5 4 4 3 4 3 4 4 3 3 3 3 8 7 6 8 10
14 13 14 16 17 15 12 9 9 10 8 7 7 8 12 10 10 8 7 7 9 6 6 6 5 5 6 5 5 3 2 3 2 2 3 3 3 3 1 4 6 5 9
12 13 14 13 16 16 10 8 7 6 7 7 7 8 11 10 12 9 8 9 8 7 6 5 6 5 6 6 6 3 2 1 1 1 2 1 1 2 1 1 2 1 4
10 13 15 15 17 13 11 10 9 10 9 8 8 11 11 11 12 11 7 9 9 10 10 11 6 7 3 6 5 2 2 4 4 4 3 3 3 2 2 2 1 2 2
13 15 15 17 17 17 13 11 9 9 8 8 7 10 11 12 12 12 12 11 11 9 10 12 9 6 4 10 5 3 3 4 8 8 5 5 6 3 3 3 3 2 3
9 12 15 17 16 17 17 10 2 4 3 4 8 9 12 14 15 15 14 11 12 10 11 14 13 13 7 8 7 5 3 7 1 3 10 8 6 5 5 4 4 3 2
8 8 11 13 14 14 15 14 14 11 9 8 8 8 9 13 14 14 15 14 14 12 12 12 11 11 8 8 3 7 1 3 5 3 4 7 8 9 8 6 4 4 4
4 5 7 8 9 11 13 15 14 13 9 5 5 9 8 9 12 13 13 13 12 11 12 12 12 13 8 5 3 4 4 1 2 2 3 4 5 8 7 8 6 5 4
4 3 3 6 6 8 12 14 16 15 10 5 5 7 5 3 4 7 10 10 10 10 11 11 12 12 11 9 9 4 4 6 7 4 4 3 4 4 7 7 7 6 6
Wind_Direction
166 157 143 131 129 123 120 107 105 100 105 103 97 87 85 85 81 79 74 74 83 83 79 76 70 75 73 72 73 74 73 68 65 64 65 69 74 75 70 69 69 70 72
147 149 141 130 130 124 120 118 110 106 97 102 94 92 90 89 89 86 80 76 82 83 80 77 74 74 75 77 77 75 73 70 65 60 61 67 71 72 73 71 72 74 73
142 144 139 129 127 126 122 119 115 108 104 108 101 95 95 93 94 89 84 76 92 87 83 83 82 80 79 78 76 71 68 61 57 55 56 67 69 73 72 66 76 78 81
140 140 136 129 130 130 122 115 110 108 114 114 108 102 100 97 98 93 92 92 89 88 86 85 88 87 86 84 80 76 69 63 59 57 63 66 71 71 71 71 68 72 74
140 138 137 132 132 131 126 118 110 114 116 117 104 104 103 100 102 99 90 97 89 89 91 89 92 93 92 87 87 82 78 70 61 67 67 68 70 74 73 71 67 61 63
140 138 139 135 135 133 127 122 118 117 106 115 112 110 106 105 106 98 90 86 92 95 90 90 88 87 88 93 94 91 85 78 72 68 69 70 79 79 75 71 71 67 64
146 141 144 137 136 134 131 129 126 121 111 113 113 111 112 111 110 101 101 100 86 93 94 91 95 94 92 84 82 85 85 76 78 71 65 74 75 81 77 71 70 70 70
153 146 145 137 135 133 133 133 128 123 118 118 117 118 120 117 116 112 106 107 100 96 94 98 95 84 80 79 83 81 76 74 81 81 72 78 76 78 77 76 77 77 78
156 147 145 145 143 135 139 138 133 133 121 120 119 116 112 112 113 110 114 113 104 99 98 99 98 99 91 89 85 80 75 72 83 81 82 75 76 78 81 82 83 85 83
161 154 151 148 150 149 148 135 130 125 124 116 111 110 104 100 98 92 102 108 111 105 103 101 103 98 92 88 86 83 77 76 85 84 81 83 85 84 84 84 85 85 85
170 170 162 159 156 153 150 145 132 121 113 111 111 111 106 118 111 111 111 120 113 115 111 108 103 95 91 84 80 76 81 86 87 85 87 87 90 90 90 93 89 89 89
176 178 170 169 165 157 153 152 146 139 138 135 136 136 131 132 125 115 106 108 123 100 102 104 97 89 85 90 85 73 83 85 82 88 92 93 95 94 92 92 96 98 94
183 182 183 176 168 166 161 156 153 149 144 145 147 146 141 138 133 126 122 114 112 91 98 98 96 82 90 95 88 87 88 86 80 73 82 92 99 98 96 95 95 98 100
179 183 184 186 172 172 160 167 162 158 157 159 162 156 152 149 148 144 139 134 127 123 119 111 100 99 90 83 88 94 90 98 96 69 44 78 99 104 104 104 103 101 102
183 185 188 187 178 172 175 172 168 169 170 167 166 169 164 162 157 149 142 140 131 133 130 121 115 105 96 91 80 86 82 81 96 96 67 23 101 112 114 114 111 110 108
190 187 190 195 193 175 183 186 180 171 172 171 174 177 175 167 163 158 152 144 138 140 135 130 128 121 108 101 85 70 69 63 62 78 80 49 35 113 121 120 118 120 122
198 183 191 194 192 187 187 186 187 184 170 172 182 178 178 175 171 162 159 159 150 134 122 116 106 103 107 102 99 88 68 52 57 49 46 70 41 30 107 130 134 136 135
194 189 188 192 195 195 194 185 187 182 180 183 177 176 183 180 172 161 160 164 153 149 142 136 131 115 113 116 102 78 91 68 70 57 50 55 76 52 47 41 146 154 153
202 195 193 195 200 198 197 192 191 185 187 183 182 184 184 178 176 168 169 158 156 152 153 148 147 143 151 138 122 100 70 86 71 103 78 17 16 90 95 34 24 23 180
205 205 202 195 198 201 194 191 188 187 189 181 186 193 183 184 180 174 171 160 158 155 156 158 155 154 157 154 141 117 144 140 322 190 173 259 3 355 48 57 338 3 314
203 204 205 195 200 194 195 191 191 192 190 183 189 195 188 187 183 181 176 166 170 178 176 162 148 158 155 155 127 125 261 252 232 230 214 219 205 215 249 161 213 255 258
216 212 207 206 198 200 200 199 204 189 202 192 188 196 192 188 188 191 183 184 184 179 177 180 168 158 160 187 159 123 204 226 232 219 214 217 220 200 236 243 217 226 274
221 212 211 210 202 198 202 195 109 111 85 165 190 193 199 194 194 195 196 189 186 188 186 187 187 186 174 194 202 149 131 224 142 175 225 222 219 209 216 212 222 226 219
244 217 215 209 206 200 192 197 192 200 196 204 195 195 195 198 199 201 199 192 191 194 199 198 193 201 171 182 197 240 181 152 190 216 223 227 227 226 220 218 204 215 213
308 240 219 196 196 193 190 200 202 210 215 174 174 191 188 199 209 204 201 197 195 199 206 197 192 202 206 174 225 140 192 197 272 227 223 207 220 229 222 214 204 205 203
5 22 199 189 198 185 190 200 210 211 207 154 169 188 189 177 183 196 197 202 203 208 204 205 200 199 194 210 197 226 195 168 183 187 227 205 217 197 217 213 210 207 194